Wind_Speed
12 12 12 11 11 11 12 12 13 13 14 14 13 13 13 13 13 14 14 14 14 14 14 13 13 13 13 13 13 13 12 12 12 12 12 12 12 13 13 14 14 14 15 15 15 15 15 15 16 16 17 18 19 19 20 21 22 22 23 23 23 24 24 24 24 24 24 25 25
12 11 11 12 12 12 12 13 13 14 15 15 15 14 14 14 14 14 14 14 14 14 14 14 14 14 14 14 14 13 13 13 13 13 13 13 13 13 13 13 14 14 14 15 15 15 15 15 15 15 16 17 18 18 19 20 20 21 22 22 23 23 24 24 24 24 24 24 24
11 11 11 12 12 12 13 13 14 15 16 16 16 16 15 15 14 14 14 15 15 15 15 15 15 15 15 15 15 14 14 14 14 14 14 14 13 13 13 14 14 14 14 15 15 15 15 15 15 15 16 16 17 18 19 19 20 20 21 22 23 23 24 24 24 25 25 25 25
11 11 12 12 13 13 13 14 15 16 16 17 17 17 17 16 15 15 15 15 16 16 16 16 16 16 16 16 16 15 15 15 15 15 15 15 14 14 14 14 14 15 15 15 15 15 16 16 15 15 16 16 17 18 19 20 20 21 21 22 23 23 24 24 25 25 25 25 25
12 12 12 13 13 14 14 15 15 16 17 18 18 18 18 17 16 15 15 16 16 17 17 17 17 17 17 17 16 16 16 16 16 16 16 16 15 15 15 15 15 15 15 15 16 16 16 16 16 16 16 16 17 18 19 20 21 21 22 22 23 23 24 24 25 25 26 26 26
12 13 13 13 13 14 15 15 16 17 18 18 18 18 18 17 17 16 16 16 17 17 18 18 18 18 18 18 17 17 17 17 16 16 16 16 16 16 16 16 16 16 16 16 16 16 16 16 16 16 16 17 17 18 20 21 21 22 22 23 24 24 25 25 25 25 26 26 26
13 13 14 14 14 14 15 16 16 17 18 18 18 18 18 17 17 16 16 17 17 17 18 18 18 18 18 18 18 18 17 17 17 17 17 17 17 17 17 17 17 17 17 17 17 17 17 17 17 17 17 17 17 18 19 21 22 23 23 24 25 25 25 26 26 26 26 26 26
14 14 14 14 14 14 15 15 16 17 17 18 17 17 17 16 16 16 16 17 17 17 18 18 18 18 18 18 18 18 18 17 17 17 17 17 17 17 17 18 18 18 18 18 17 17 18 18 18 18 17 17 18 18 19 21 22 23 24 24 25 26 26 26 27 27 27 26 26
15 15 14 14 14 14 14 15 16 16 17 17 17 16 16 15 15 15 16 16 17 17 18 18 18 18 18 18 18 18 18 17 17 17 17 17 17 18 18 18 18 18 18 18 18 18 18 18 18 18 18 18 18 19 20 21 22 23 24 25 26 26 27 27 27 27 27 27 27
15 15 14 14 13 13 14 15 16 16 16 16 16 16 15 14 14 15 15 16 16 17 17 17 18 18 18 18 18 18 17 17 17 17 17 17 18 18 18 18 18 19 19 19 19 18 18 18 18 18 18 19 19 19 20 21 22 23 25 26 27 27 27 28 28 27 27 27 27
15 15 14 13 13 14 14 16 16 16 16 16 15 15 14 14 14 14 14 15 16 16 17 17 17 17 17 17 17 17 17 17 17 17 17 17 18 18 18 18 19 19 19 19 19 19 18 18 18 18 18 19 19 20 20 21 22 24 25 26 27 28 28 28 28 28 28 27 27
15 14 13 13 13 14 15 16 17 16 16 15 14 13 13 13 13 13 14 15 15 15 16 16 16 16 16 16 16 16 17 17 17 17 17 17 17 18 18 18 18 19 19 19 19 19 18 18 18 18 18 19 20 20 21 22 23 24 25 27 28 29 29 29 30 29 29 28 27
15 14 14 14 15 16 17 17 17 16 15 14 13 12 12 13 13 13 14 14 14 15 15 16 16 15 15 15 16 16 16 16 16 16 16 17 17 17 18 18 18 19 19 19 19 19 19 19 19 19 19 19 20 21 21 22 23 24 25 27 28 29 30 30 31 31 30 30 29
15 15 15 16 16 17 18 17 17 15 14 13 12 12 12 13 13 13 13 13 14 14 14 15 15 15 15 15 15 15 15 15 16 16 16 17 17 17 18 18 18 19 19 19 19 19 19 19 19 20 20 20 21 21 22 23 24 25 26 27 28 29 29 30 31 32 32 31 30
16 16 17 18 18 18 18 17 16 14 13 12 12 12 12 13 13 13 13 13 13 13 14 14 14 14 15 15 15 15 15 15 15 16 16 16 17 17 18 18 19 19 19 19 20 20 20 20 21 21 21 21 22 23 24 24 25 26 27 27 28 29 29 30 31 32 32 32 32
16 17 18 18 19 18 17 15 14 13 12 12 12 12 12 13 13 13 13 13 13 13 13 13 14 14 15 15 15 15 15 16 16 16 16 17 17 18 18 19 19 19 20 20 20 21 21 22 22 23 23 23 24 24 25 26 26 27 28 28 29 29 30 30 31 32 32 33 33
16 17 18 18 17 16 15 14 13 12 12 11 12 12 12 13 13 13 13 13 13 13 13 13 14 14 15 15 16 16 16 16 17 17 17 18 18 18 19 19 20 20 21 21 22 22 23 23 24 24 25 25 26 26 27 27 28 29 29 30 30 30 31 31 31 31 31 32 32
16 16 16 16 15 14 13 12 11 11 11 11 11 12 12 12 13 13 13 14 14 14 14 14 14 15 15 15 16 17 17 17 17 18 18 19 19 19 20 20 21 21 22 22 23 23 24 25 25 26 26 27 27 28 29 29 30 30 30 31 31 31 31 31 31 31 31 30 30
15 15 14 14 13 12 11 11 10 10 10 11 11 11 12 12 12 13 13 14 14 14 15 15 15 16 16 16 17 17 18 18 18 19 19 20 20 20 21 21 22 22 23 23 24 25 25 26 27 27 28 28 29 29 29 30 30 30 31 31 31 31 31 31 31 30 30 29 29
13 13 12 11 11 10 10 10 9 10 10 10 11 11 11 12 12 13 13 14 14 15 15 16 16 16 17 17 17 18 18 19 19 19 20 20 21 21 22 22 22 23 23 24 25 25 26 26 27 27 28 28 29 29 29 30 30 30 30 30 30 30 30 30 30 29 29 28 27
11 10 10 9 9 8 8 9 9 9 9 9 10 10 11 11 12 12 13 13 14 14 15 15 16 17 17 17 18 18 18 19 19 20 20 21 21 21 22 22 23 23 23 24 24 25 25 26 26 27 27 28 28 28 29 29 29 29 29 29 29 29 29 29 28 28 28 27 26
8 8 7 7 7 7 7 8 8 8 8 9 9 10 11 11 12 12 13 13 13 14 14 15 15 16 16 17 17 17 18 18 19 19 20 20 20 21 21 22 22 22 23 23 24 24 24 25 25 26 26 27 27 27 28 28 28 28 28 28 27 27 27 27 27 27 27 26 26
6 6 6 6 6 6 7 7 7 8 8 9 9 10 11 11 12 12 13 13 13 14 14 15 15 15 16 17 17 17 17 18 18 18 19 19 19 20 20 21 21 21 22 22 23 23 24 24 24 25 25 26 26 26 26 27 27 27 27 27 27 27 26 26 26 26 26 26 25
5 5 5 6 6 6 7 7 8 8 9 10 10 11 11 12 12 13 13 14 14 14 15 15 16 16 16 17 17 17 18 18 18 18 18 19 19 19 20 20 20 21 21 21 22 22 23 23 24 24 25 25 25 25 26 26 26 27 27 27 27 27 26 26 26 26 26 25 25
5 5 5 6 7 7 8 9 9 10 10 11 12 12 13 13 14 14 14 15 15 15 16 16 16 17 17 17 17 18 18 19 19 19 19 19 19 20 20 20 20 20 21 21 21 21 22 22 23 23 24 24 25 25 25 25 26 26 26 27 27 27 27 27 26 26 26 25 25
5 6 7 7 8 9 9 10 11 11 12 13 13 14 14 14 15 15 16 16 16 17 17 17 17 17 18 18 18 18 19 19 20 20 20 21 21 21 20 20 20 20 20 21 21 21 21 21 22 23 23 24 24 24 25 25 25 25 26 26 27 27 28 27 27 27 26 26 26
6 7 7 8 9 10 10 11 12 12 13 13 14 14 15 16 16 17 17 17 17 18 18 18 18 18 18 19 19 19 19 20 20 20 21 21 21 21 21 21 21 21 21 21 21 21 21 21 21 22 23 23 24 24 24 24 25 25 25 26 27 27 28 28 28 28 27 27 26
7 7 8 8 9 10 10 11 12 12 13 14 14 15 15 16 17 17 17 18 18 18 18 18 19 19 19 19 20 20 20 20 21 21 21 22 22 22 22 22 21 21 21 21 21 21 21 22 22 22 23 23 24 24 24 25 25 25 25 26 26 27 27 28 28 28 28 28 27
7 7 8 8 9 10 10 11 12 12 13 13 14 15 15 16 17 17 18 18 19 19 19 19 19 20 20 20 20 21 21 21 22 22 22 22 22 22 22 22 22 22 22 22 22 22 22 22 22 23 23 24 24 25 25 25 25 25 25 25 26 26 26 27 28 28 28 28 28
7 8 8 9 9 10 11 11 12 12 13 13 14 15 15 16 17 18 18 19 19 19 20 20 20 20 21 21 21 22 22 22 23 23 23 23 23 23 23 23 23 23 23 23 23 23 23 23 23 23 24 24 25 25 25 25 25 25 25 26 25 26 26 26 27 27 28 28 28
8 9 9 10 11 11 12 13 13 13 13 14 14 15 16 17 18 18 19 20 20 20 21 21 21 21 21 22 22 22 23 23 23 24 24 25 25 25 25 24 24 24 24 24 24 24 24 24 24 24 25 25 26 26 26 26 26 26 26 26 26 26 26 26 26 26 27 27 28
10 11 11 12 13 13 14 15 15 15 15 15 15 16 17 17 18 19 20 20 21 21 21 21 22 22 22 22 23 23 23 24 24 24 25 25 26 26 26 25 25 25 25 25 25 25 25 25 25 25 26 26 26 27 27 27 27 27 27 27 26 26 26 26 26 26 26 26 27
12 13 13 14 15 15 16 16 16 16 16 17 17 17 18 18 19 20 20 21 21 22 22 22 23 23 23 23 24 24 24 24 24 25 25 26 26 26 26 26 26 26 25 25 26 26 26 26 26 26 27 27 27 28 28 28 28 28 28 28 27 27 26 26 26 26 26 26 26
14 14 15 15 16 16 17 17 17 18 18 18 19 19 20 20 21 21 22 22 22 23 23 23 24 24 24 25 25 25 25 25 25 26 26 26 27 27 27 27 26 26 26 26 26 26 26 27 27 27 27 28 28 28 28 29 29 29 29 28 28 27 27 26 26 26 26 26 26
15 15 16 16 16 17 18 18 19 19 20 20 21 22 22 22 23 23 23 24 24 25 25 25 25 25 26 26 26 26 26 27 26 26 27 27 27 28 28 27 27 26 26 26 26 26 26 27 27 27 28 28 28 29 29 29 29 29 29 29 28 28 27 27 26 26 26 26 26
16 16 16 17 17 18 19 20 20 21 22 22 23 24 24 25 25 25 26 26 26 26 26 26 26 26 27 27 27 27 27 27 27 27 27 27 28 28 28 28 27 27 26 26 26 26 26 26 27 27 28 28 28 29 29 30 30 30 30 30 29 28 28 27 27 26 26 26 26
16 17 17 18 18 19 20 21 22 22 23 24 24 25 26 26 27 27 27 27 27 27 27 27 27 27 27 27 27 27 27 27 27 28 27 27 27 28 28 28 28 27 26 26 26 26 26 26 26 27 27 28 29 29 29 30 30 30 30 30 30 29 28 28 27 27 27 26 26
17 17 18 19 19 20 21 22 22 23 24 25 26 26 27 27 27 28 27 27 27 28 28 28 27 27 27 27 27 27 27 27 27 27 27 27 27 27 28 28 28 27 26 26 26 26 26 26 26 26 27 28 29 29 30 30 30 31 31 31 30 30 29 28 28 28 27 27 27
17 18 19 19 20 20 21 22 23 24 25 26 26 27 27 27 27 27 27 26 26 27 27 27 26 26 26 26 27 27 26 26 26 26 26 26 26 26 27 27 28 27 26 26 26 26 26 26 26 26 27 28 28 29 30 30 31 31 31 31 31 31 30 30 29 29 28 28 27
17 18 19 19 20 21 22 23 24 25 25 26 27 27 26 26 26 26 25 25 25 25 25 25 25 25 25 25 25 26 26 26 25 25 25 25 25 25 26 26 27 27 27 26 26 26 26 26 26 26 27 27 28 29 30 30 31 32 32 32 32 32 31 31 30 30 29 29 28
18 18 19 19 20 21 22 24 25 25 26 26 26 26 25 25 25 24 24 23 23 23 23 23 24 24 24 24 25 25 26 26 25 25 24 25 25 25 25 26 27 27 27 26 26 26 26 26 26 26 27 27 28 29 29 30 31 31 32 32 31 32 32 32 32 31 31 30 30
Wind_Direction
268 271 274 277 281 285 289 293 297 299 300 301 299 296 291 284 279 276 275 275 275 276 278 279 281 282 283 283 284 286 290 294 299 305 310 316 321 326 330 333 336 339 341 343 346 349 352 354 356 356 356 356 357 358 359 360 2 3 3 4 4 4 4 4 4 4 3 3 2
265 268 272 276 281 285 290 295 298 300 301 300 299 296 292 287 282 278 276 276 275 276 277 278 279 280 281 282 282 283 285 288 292 297 302 308 313 318 322 326 329 332 334 337 339 341 344 347 350 352 352 351 351 352 352 353 355 357 358 359 360 0 1 1 1 1 1 1 0
261 266 270 275 280 285 290 295 298 299 299 298 297 296 293 289 285 281 278 276 276 276 276 277 277 278 280 281 281 281 282 284 287 291 295 301 306 310 315 318 322 325 327 330 332 334 337 340 343 346 347 347 347 346 347 348 349 351 353 354 355 356 357 357 357 358 358 358 358
257 263 269 274 279 284 289 292 294 296 296 296 295 295 293 291 287 283 280 278 276 276 276 276 276 277 278 279 281 282 282 283 284 287 291 295 299 304 308 312 315 319 321 324 326 328 330 333 336 339 342 343 344 343 343 344 346 347 349 350 351 352 352 353 354 354 355 355 355
255 261 266 271 277 282 286 289 290 292 293 293 294 294 293 292 289 286 283 280 277 277 276 276 277 277 277 279 280 282 283 284 284 286 288 291 295 299 302 306 310 313 316 318 321 323 325 327 330 333 336 338 340 340 340 341 342 344 346 347 348 348 349 349 350 351 351 352 352
255 259 264 269 275 279 282 285 288 290 291 292 293 294 294 292 290 287 284 281 279 278 278 278 278 278 279 279 280 282 283 285 285 286 288 290 293 295 299 302 305 308 311 314 316 318 320 322 325 327 329 332 335 336 336 337 338 340 342 344 345 346 346 346 347 347 347 348 348
254 259 264 268 273 276 280 284 286 288 290 291 293 294 293 292 290 287 285 283 282 281 280 280 280 280 280 281 282 283 284 285 286 287 288 290 292 294 297 299 302 305 307 310 312 314 316 318 320 322 324 327 330 331 332 333 334 335 337 340 342 343 344 344 344 344 344 344 344
252 257 262 267 271 275 279 283 286 289 290 291 292 292 291 289 287 286 285 284 283 282 282 281 281 281 282 282 283 283 284 286 287 288 289 290 291 293 295 297 300 302 304 306 308 311 313 315 316 318 320 322 325 327 328 329 330 331 333 335 337 339 341 341 342 341 341 341 340
252 256 261 265 270 275 279 283 286 288 290 290 289 288 287 286 285 285 284 283 283 283 282 282 282 282 283 283 283 284 285 286 287 288 289 290 291 293 295 296 298 300 302 303 305 307 310 311 314 315 316 318 320 322 324 326 327 328 329 330 333 335 337 338 338 339 338 338 337
252 257 261 266 270 274 278 282 284 285 286 286 285 285 285 285 284 284 283 283 283 283 283 283 283 283 283 284 284 285 285 286 286 287 288 289 291 292 293 295 297 298 300 301 303 305 306 308 310 312 314 315 317 319 321 322 324 325 326 327 329 331 332 333 334 335 335 335 335
251 257 262 267 271 273 276 279 281 281 281 281 282 283 284 284 284 284 284 284 283 283 283 283 284 284 284 285 285 285 286 286 286 287 288 289 290 291 292 293 295 296 298 299 301 302 304 305 307 308 310 312 313 315 317 319 321 322 323 324 326 327 328 330 330 331 332 333 333
251 257 262 266 268 270 273 276 277 277 277 278 279 281 283 284 284 284 284 284 284 284 284 284 284 285 285 286 286 287 287 287 288 288 288 289 289 290 291 292 294 295 296 297 299 300 301 302 303 304 306 308 310 311 313 315 316 318 320 321 323 324 326 326 327 328 329 330 330
252 258 263 265 267 268 270 271 272 272 274 275 277 279 281 282 283 283 282 282 283 283 284 284 284 285 285 286 286 287 287 288 288 288 288 289 289 290 291 292 292 293 295 296 297 298 299 300 300 301 302 304 306 308 309 311 312 314 316 318 320 322 323 324 325 326 326 327 328
254 260 264 266 267 267 268 268 269 270 272 273 275 277 278 279 280 280 280 280 281 281 282 283 283 284 285 285 285 285 286 286 287 287 287 288 288 289 290 291 292 292 293 294 295 296 297 298 298 299 299 300 302 304 306 307 309 311 313 315 317 319 320 321 322 323 324 325 325
257 261 264 265 266 267 266 267 268 269 271 271 272 274 275 276 277 278 278 279 279 279 279 280 281 282 282 283 283 283 283 284 284 284 285 286 287 288 289 289 290 291 292 293 294 295 296 297 297 298 298 299 300 302 304 306 307 309 311 313 315 316 318 319 320 320 321 322 323
259 262 264 265 265 266 266 267 268 269 270 270 271 272 273 273 275 275 276 276 277 277 278 279 279 280 280 281 281 281 281 282 282 283 283 284 285 286 288 289 290 290 291 292 293 294 295 296 297 298 298 299 300 302 303 305 307 308 310 312 313 314 315 316 317 318 319 319 320
260 262 263 263 264 264 266 268 270 271 271 270 270 271 271 272 273 274 274 275 275 276 277 277 277 278 279 279 279 280 280 281 282 282 283 284 285 286 288 289 290 291 292 293 293 294 296 297 298 299 300 301 302 303 304 306 307 308 310 311 312 313 314 314 315 316 316 317 318
258 260 261 261 262 264 266 269 271 272 271 271 271 271 272 272 273 274 275 275 276 276 277 277 278 278 279 279 280 280 281 282 283 284 285 286 287 288 289 291 292 293 294 295 295 296 297 298 299 300 301 302 303 304 306 307 308 309 310 311 312 312 313 313 314 314 315 316 316
256 257 258 259 260 263 265 268 270 271 272 273 274 274 275 275 275 276 277 278 278 279 279 279 279 280 280 281 282 282 283 284 285 286 287 288 289 290 291 293 294 295 297 298 299 299 300 301 302 303 303 304 305 306 307 308 308 309 310 311 312 312 313 313 313 314 314 315 315
253 255 256 258 260 262 265 267 270 271 274 275 277 278 279 280 280 280 281 282 282 282 283 283 283 283 284 284 285 286 286 287 288 289 290 290 291 292 294 295 296 298 299 301 302 303 303 304 304 305 306 306 307 308 308 309 309 310 311 311 312 313 313 313 314 314 314 314 315
251 253 255 258 261 263 265 268 271 274 277 280 282 284 285 286 287 287 287 288 288 288 288 288 288 288 288 288 289 290 291 291 292 293 293 294 295 296 296 297 299 300 302 303 304 305 306 307 307 307 307 308 308 309 309 310 310 311 311 312 312 313 314 314 315 315 315 315 315
250 253 256 259 262 265 268 271 275 279 282 285 287 289 290 292 293 293 294 294 295 295 295 295 294 294 294 294 294 294 295 296 297 298 298 298 299 299 300 301 302 303 304 305 306 307 307 308 308 308 309 309 310 310 310 311 312 312 312 313 313 314 314 315 316 316 316 316 316
250 255 259 263 267 270 274 278 282 286 289 291 292 294 295 296 297 298 299 300 300 301 301 301 301 301 301 300 300 300 300 300 301 301 302 303 303 304 304 304 305 306 307 307 308 309 309 309 309 310 310 310 311 311 312 312 313 313 313 314 314 314 315 315 316 316 317 317 316
256 264 270 275 279 282 286 289 292 294 295 296 298 298 299 299 299 300 300 301 302 302 303 303 304 304 304 305 304 304 304 304 304 304 304 304 305 306 306 307 307 308 308 309 309 310 311 311 311 311 311 311 311 311 312 312 313 313 313 313 313 314 314 314 315 315 316 316 316
272 280 286 290 293 295 298 299 301 301 301 301 301 301 301 301 301 300 300 301 301 301 302 303 303 304 304 305 305 305 305 305 305 305 305 305 305 306 306 307 308 308 309 309 310 311 311 311 311 311 310 310 310 310 310 311 311 311 312 312 312 312 312 312 313 313 313 314 314
286 292 297 300 302 304 305 306 305 305 304 304 304 304 303 302 302 301 301 300 300 300 301 302 302 302 303 303 304 304 304 304 304 304 304 305 305 305 306 306 307 308 308 309 309 309 310 310 309 309 309 308 308 308 308 308 308 308 309 309 310 310 310 310 310 310 311 311 311
294 298 301 304 306 306 306 307 307 306 305 305 304 304 303 302 301 300 300 300 299 300 300 300 301 301 301 301 301 302 302 302 302 303 303 303 304 304 305 305 306 307 308 308 308 308 308 307 307 307 306 306 306 305 306 306 306 306 306 307 307 308 308 308 309 308 308 308 308
298 301 304 306 307 307 307 307 307 305 304 304 303 302 301 300 299 299 298 298 298 298 298 298 299 299 299 299 299 300 300 300 300 301 301 301 302 303 303 304 305 305 306 307 307 306 306 306 305 305 304 304 304 304 304 304 304 304 305 305 305 306 306 306 307 307 307 306 306
303 306 307 309 308 308 308 308 307 305 304 303 302 300 299 298 297 296 296 296 296 296 296 296 297 297 297 297 297 298 298 298 299 299 299 299 300 300 301 302 302 303 304 304 304 304 304 304 304 304 303 303 303 303 303 303 304 304 304 304 304 304 305 305 305 305 305 305 304
309 311 313 314 314 313 312 311 310 308 306 304 302 300 299 298 297 296 295 296 296 296 296 297 297 297 297 297 297 297 297 297 298 298 298 298 298 298 299 299 300 301 301 302 302 302 302 302 302 302 302 302 302 302 302 302 303 303 303 303 303 304 304 304 304 304 304 304 303
313 316 318 319 319 318 317 316 314 312 310 308 306 303 302 300 299 298 298 298 298 299 299 300 299 299 298 298 298 298 297 297 297 297 298 298 297 297 298 298 299 299 299 300 300 300 300 300 301 301 301 301 300 301 301 301 302 302 302 302 303 303 303 303 303 303 303 303 302
317 319 320 319 319 319 318 317 316 315 314 312 310 307 306 304 303 302 302 302 302 302 302 302 302 301 301 300 300 299 299 299 298 298 298 298 298 298 298 298 298 298 298 298 298 298 298 299 299 299 299 299 299 300 300 300 300 300 301 301 301 302 302 302 302 302 302 302 301
315 316 316 316 316 316 317 317 316 316 315 314 313 311 310 308 307 306 305 305 305 305 305 304 304 304 303 303 302 302 302 301 301 300 300 300 299 299 299 299 299 298 298 298 297 297 297 297 298 298 298 298 298 298 299 299 299 299 299 299 300 300 300 301 301 301 301 301 301
309 310 311 312 313 313 314 314 315 315 315 314 313 313 311 310 309 308 307 307 307 306 306 305 305 305 304 304 304 304 304 304 303 303 302 301 301 300 300 300 300 299 299 298 297 297 296 296 296 296 296 296 297 297 297 297 297 297 297 297 297 298 298 298 299 299 299 299 299
303 305 306 307 309 310 311 311 312 312 313 313 313 312 311 311 310 309 309 308 307 306 306 305 305 304 304 304 304 304 305 304 304 304 303 303 302 301 301 300 300 300 299 298 298 296 296 295 295 295 295 295 295 296 296 296 296 296 296 296 296 296 296 296 296 296 297 297 298
297 300 301 303 304 306 307 308 309 309 310 311 311 311 310 310 310 310 309 308 308 306 305 304 304 304 303 303 303 304 304 304 305 304 304 303 302 302 301 301 301 300 300 299 298 297 296 295 295 295 294 294 294 294 295 295 295 295 295 295 294 294 294 294 294 294 295 295 296
292 294 296 298 300 302 303 305 306 307 308 309 309 309 309 309 309 309 309 308 307 305 304 304 303 303 302 302 303 303 303 304 304 304 304 303 302 301 301 301 301 301 300 300 298 297 296 295 295 295 295 295 294 295 295 295 295 294 294 294 293 293 293 292 292 293 293 294 295
288 290 292 294 297 299 301 303 304 305 307 307 308 308 308 308 308 308 307 306 305 304 303 302 302 302 301 302 302 302 303 303 303 303 302 302 301 300 300 300 300 301 301 300 299 298 297 296 296 295 295 295 295 295 295 295 295 294 294 293 293 292 292 291 291 291 291 292 293
284 286 289 291 294 296 299 301 303 305 306 306 307 307 307 307 306 306 305 304 303 302 301 301 301 301 301 301 301 302 302 302 301 301 301 300 299 299 299 299 299 300 300 300 299 298 297 297 296 296 296 296 296 296 296 296 295 295 294 294 293 292 291 290 290 290 290 291 292
282 284 286 289 292 295 298 300 302 304 305 305 305 305 305 305 305 304 303 302 301 301 300 301 301 301 301 301 301 301 301 301 301 300 300 299 299 298 298 298 298 299 299 299 298 298 297 297 296 296 296 296 296 296 296 296 295 295 294 294 293 293 292 290 289 289 289 290 290
280 282 284 287 291 294 297 299 301 302 303 303 303 303 303 303 303 302 302 301 301 300 300 301 301 301 301 301 301 301 301 302 301 301 300 299 298 297 297 297 297 297 297 297 297 296 296 295 295 295 295 295 296 295 295 295 295 295 294 294 294 293 292 291 290 289 289 289 290
Height
1521 1521 1521 1520 1520 1520 1520 1520 1520 1520 1520 1520 1520 1520 1520 1520 1520 1520 1520 1520 1520 1520 1520 1519 1519 1519 1518 1518 1517 1517 1517 1516 1516 1515 1515 1515 1514 1514 1513 1513 1512 1512 1511 1510 1510 1509 1509 1508 1507 1507 1506 1505 1504 1503 1502 1501 1500 1500 1499 1498 1497 1495 1495 1494 1493 1491 1490 1489 1488
1520 1520 1520 1520 1520 1520 1519 1519 1519 1519 1519 1520 1519 1519 1519 1519 1519 1519 1519 1519 1519 1519 1519 1518 1518 1518 1517 1517 1516 1516 1516 1515 1515 1515 1514 1514 1513 1513 1512 1512 1511 1511 1510 1510 1509 1509 1508 1508 1507 1506 1506 1505 1504 1503 1502 1501 1500 1500 1499 1498 1497 1495 1495 1494 1493 1491 1490 1490 1488
1519 1519 1519 1519 1519 1519 1519 1518 1518 1518 1519 1518 1518 1518 1518 1518 1518 1518 1518 1518 1518 1518 1517 1517 1517 1517 1516 1516 1515 1515 1515 1515 1514 1514 1513 1513 1512 1512 1512 1511 1511 1510 1510 1509 1509 1508 1508 1507 1506 1506 1505 1504 1504 1503 1502 1501 1500 1500 1498 1497 1496 1495 1495 1494 1492 1491 1490 1489 1488
1517 1517 1518 1518 1518 1517 1517 1517 1517 1517 1517 1517 1517 1517 1517 1517 1517 1517 1517 1516 1516 1516 1516 1516 1516 1516 1515 1515 1515 1514 1514 1514 1513 1513 1513 1512 1512 1511 1511 1510 1510 1510 1509 1509 1508 1507 1507 1506 1505 1505 1504 1504 1503 1502 1501 1501 1500 1499 1498 1497 1496 1495 1495 1493 1492 1491 1490 1489 1488
1516 1516 1516 1516 1516 1516 1516 1516 1516 1516 1516 1516 1516 1516 1516 1516 1516 1515 1515 1515 1515 1515 1515 1515 1515 1515 1514 1514 1514 1513 1513 1513 1512 1512 1512 1511 1511 1510 1510 1510 1509 1509 1508 1508 1507 1507 1506 1505 1505 1504 1504 1503 1502 1501 1501 1500 1500 1499 1498 1497 1496 1495 1494 1493 1492 1491 1490 1489 1488
1515 1515 1515 1515 1515 1515 1515 1515 1515 1515 1515 1515 1515 1515 1515 1515 1515 1515 1514 1514 1514 1514 1514 1514 1514 1514 1513 1513 1513 1512 1512 1512 1511 1511 1511 1510 1510 1510 1509 1509 1508 1508 1507 1507 1506 1506 1505 1505 1504 1504 1503 1502 1501 1501 1500 1500 1499 1498 1498 1497 1496 1495 1494 1493 1492 1491 1490 1489 1488
1514 1514 1514 1514 1514 1514 1514 1514 1514 1514 1514 1514 1514 1514 1514 1514 1514 1513 1513 1513 1513 1513 1513 1513 1513 1513 1512 1512 1512 1511 1511 1511 1510 1510 1510 1510 1509 1509 1508 1508 1507 1507 1507 1506 1506 1505 1505 1504 1504 1503 1502 1502 1501 1500 1500 1499 1498 1498 1497 1496 1495 1495 1494 1493 1492 1491 1490 1489 1488
1513 1513 1513 1513 1513 1513 1513 1513 1513 1513 1513 1513 1513 1513 1513 1513 1512 1512 1512 1512 1512 1512 1512 1512 1511 1511 1511 1511 1511 1510 1510 1510 1509 1509 1509 1508 1508 1508 1507 1507 1506 1506 1505 1505 1505 1504 1504 1503 1503 1502 1501 1501 1500 1499 1499 1498 1497 1497 1496 1496 1495 1494 1494 1493 1492 1490 1490 1489 1488
1511 1511 1511 1511 1511 1511 1511 1511 1511 1512 1512 1512 1512 1512 1511 1511 1511 1511 1511 1511 1511 1511 1510 1510 1510 1510 1510 1510 1510 1509 1509 1509 1508 1508 1508 1507 1507 1506 1506 1506 1505 1505 1505 1504 1504 1503 1503 1502 1502 1501 1500 1500 1499 1499 1498 1497 1496 1496 1495 1495 1494 1494 1493 1492 1491 1490 1490 1488 1487
1510 1510 1510 1510 1510 1510 1510 1510 1510 1510 1510 1510 1510 1510 1510 1510 1510 1510 1510 1510 1510 1510 1510 1509 1509 1509 1509 1508 1508 1508 1508 1507 1507 1507 1506 1506 1505 1505 1505 1505 1504 1504 1503 1503 1503 1502 1502 1501 1501 1500 1500 1499 1498 1498 1497 1496 1496 1495 1494 1494 1493 1493 1492 1491 1491 1490 1489 1488 1487
1508 1508 1508 1508 1508 1508 1508 1509 1509 1509 1509 1509 1509 1509 1509 1509 1509 1509 1509 1509 1509 1508 1508 1508 1508 1508 1507 1507 1507 1507 1506 1506 1506 1505 1505 1505 1504 1504 1504 1503 1503 1502 1502 1502 1501 1501 1501 1500 1500 1499 1499 1498 1497 1497 1496 1495 1495 1494 1494 1493 1492 1492 1491 1490 1490 1489 1489 1488 1487
1506 1507 1507 1507 1507 1507 1507 1507 1507 1508 1508 1508 1508 1508 1507 1507 1508 1508 1508 1507 1507 1507 1507 1507 1507 1507 1506 1506 1506 1505 1505 1505 1505 1504 1504 1503 1503 1503 1502 1502 1501 1501 1501 1500 1500 1500 1499 1499 1499 1498 1498 1497 1496 1496 1495 1495 1494 1493 1493 1492 1491 1490 1490 1489 1489 1488 1488 1487 1486
1505 1505 1505 1505 1505 1505 1505 1506 1506 1506 1506 1506 1506 1506 1506 1506 1506 1506 1506 1506 1506 1506 1506 1506 1505 1505 1505 1505 1505 1504 1504 1503 1503 1503 1502 1502 1502 1501 1501 1500 1500 1500 1499 1499 1499 1498 1498 1497 1497 1497 1496 1496 1495 1495 1494 1493 1493 1492 1491 1491 1490 1490 1489 1488 1487 1487 1486 1485 1485
1503 1503 1504 1504 1504 1504 1504 1504 1505 1505 1505 1505 1505 1505 1505 1505 1505 1505 1505 1505 1505 1505 1505 1505 1504 1504 1504 1504 1503 1503 1502 1502 1502 1501 1501 1500 1500 1500 1500 1499 1499 1498 1498 1498 1497 1497 1496 1496 1495 1495 1495 1494 1494 1493 1493 1492 1491 1491 1490 1490 1489 1488 1488 1487 1486 1485 1485 1484 1484
1501 1502 1502 1502 1503 1503 1503 1503 1503 1504 1504 1504 1504 1504 1504 1504 1504 1504 1504 1504 1504 1504 1504 1503 1503 1503 1503 1502 1502 1501 1501 1501 1500 1500 1500 1499 1499 1499 1498 1498 1497 1497 1497 1496 1496 1495 1495 1495 1494 1494 1493 1493 1492 1492 1491 1490 1490 1490 1489 1489 1488 1487 1487 1486 1485 1484 1483 1483 1482
1500 1500 1501 1501 1501 1502 1502 1502 1502 1502 1503 1503 1503 1503 1503 1503 1503 1503 1503 1503 1503 1503 1502 1502 1502 1502 1501 1501 1501 1500 1500 1499 1499 1498 1498 1498 1497 1497 1497 1496 1496 1496 1495 1495 1495 1494 1494 1493 1493 1492 1492 1491 1491 1490 1490 1489 1489 1488 1488 1487 1486 1486 1485 1485 1484 1483 1482 1481 1481
1499 1499 1499 1500 1500 1500 1501 1501 1501 1501 1502 1502 1502 1502 1502 1502 1502 1502 1502 1502 1502 1502 1501 1501 1501 1501 1500 1500 1500 1499 1499 1498 1498 1497 1497 1496 1496 1496 1495 1495 1495 1494 1494 1494 1493 1493 1492 1492 1491 1491 1490 1490 1489 1489 1488 1488 1487 1487 1486 1485 1485 1485 1484 1484 1483 1482 1481 1481 1480
1497 1497 1498 1499 1499 1499 1500 1500 1500 1500 1500 1501 1501 1501 1501 1501 1501 1501 1501 1501 1501 1500 1500 1500 1500 1500 1499 1499 1498 1498 1497 1497 1496 1496 1495 1495 1495 1494 1494 1494 1493 1493 1493 1492 1492 1491 1491 1490 1490 1489 1489 1488 1488 1487 1487 1486 1485 1485 1485 1484 1484 1483 1483 1482 1481 1481 1480 1480 1479
1496 1496 1497 1497 1498 1498 1499 1499 1499 1500 1500 1500 1500 1500 1500 1500 1500 1500 1500 1500 1500 1500 1499 1499 1499 1499 1498 1498 1497 1497 1496 1496 1495 1495 1494 1494 1493 1493 1493 1492 1492 1491 1491 1491 1490 1490 1490 1489 1488 1488 1487 1486 1486 1485 1485 1484 1484 1483 1483 1482 1482 1481 1481 1480 1480 1480 1479 1478 1478
1495 1495 1496 1496 1497 1497 1498 1498 1498 1499 1499 1499 1499 1499 1499 1499 1499 1499 1499 1499 1499 1498 1498 1498 1498 1497 1497 1496 1496 1495 1495 1495 1494 1494 1493 1492 1492 1491 1491 1491 1490 1490 1490 1489 1489 1488 1488 1487 1487 1486 1485 1485 1484 1484 1483 1483 1482 1482 1481 1481 1480 1480 1479 1479 1478 1478 1477 1477 1476
1494 1494 1495 1495 1496 1496 1497 1497 1498 1498 1498 1498 1498 1498 1498 1497 1497 1497 1497 1497 1497 1497 1497 1497 1496 1496 1496 1495 1495 1494 1494 1493 1493 1492 1492 1491 1491 1490 1490 1490 1489 1489 1488 1488 1487 1487 1486 1486 1485 1485 1484 1483 1483 1482 1481 1481 1480 1480 1480 1479 1479 1478 1478 1477 1477 1476 1476 1475 1475
1493 1494 1494 1495 1495 1496 1496 1496 1497 1497 1497 1497 1497 1497 1497 1496 1496 1496 1496 1496 1496 1496 1496 1496 1495 1495 1495 1494 1494 1493 1493 1492 1492 1491 1490 1490 1490 1489 1489 1488 1488 1487 1487 1486 1486 1485 1485 1484 1484 1483 1482 1482 1481 1480 1480 1480 1479 1478 1478 1478 1477 1477 1477 1476 1475 1475 1475 1474 1474
1492 1493 1494 1494 1495 1495 1495 1496 1496 1496 1496 1496 1496 1496 1495 1495 1495 1495 1495 1495 1495 1495 1495 1495 1494 1494 1493 1493 1492 1492 1491 1491 1490 1490 1490 1489 1488 1488 1487 1487 1486 1486 1485 1485 1484 1484 1483 1483 1482 1481 1481 1480 1480 1479 1478 1478 1477 1477 1476 1476 1476 1475 1475 1475 1474 1474 1473 1473 1472
1492 1492 1493 1493 1494 1494 1495 1495 1495 1495 1495 1495 1495 1495 1495 1494 1494 1494 1494 1494 1494 1494 1494 1494 1493 1493 1492 1492 1491 1490 1490 1490 1489 1489 1488 1488 1487 1487 1486 1486 1485 1485 1484 1484 1483 1482 1481 1481 1480 1480 1479 1479 1478 1478 1477 1476 1476 1475 1475 1474 1474 1474 1474 1473 1473 1473 1472 1471 1471
1491 1492 1492 1493 1493 1493 1494 1494 1494 1494 1494 1494 1494 1494 1493 1493 1493 1493 1493 1493 1493 1493 1493 1492 1492 1492 1491 1490 1490 1489 1488 1488 1487 1487 1487 1486 1486 1486 1485 1485 1484 1484 1483 1482 1482 1481 1480 1480 1479 1478 1477 1477 1476 1476 1476 1475 1475 1474 1473 1473 1472 1472 1472 1472 1471 1471 1471 1470 1470
1491 1491 1491 1492 1492 1492 1493 1493 1493 1493 1493 1493 1493 1492 1492 1492 1492 1492 1492 1492 1492 1491 1491 1491 1491 1490 1490 1489 1489 1488 1487 1486 1486 1485 1485 1485 1484 1484 1484 1483 1483 1482 1482 1481 1480 1480 1479 1479 1478 1477 1476 1475 1475 1475 1474 1474 1473 1473 1472 1471 1471 1470 1470 1470 1470 1470 1469 1469 1468
1490 1490 1490 1491 1491 1491 1491 1491 1492 1492 1492 1491 1491 1491 1491 1490 1490 1490 1490 1490 1490 1490 1490 1489 1489 1489 1488 1488 1487 1486 1485 1485 1484 1484 1483 1483 1482 1482 1482 1482 1481 1481 1480 1480 1479 1478 1478 1477 1476 1475 1475 1474 1473 1473 1473 1472 1472 1471 1471 1470 1470 1469 1469 1468 1468 1467 1467 1467 1467
1489 1489 1490 1490 1490 1490 1490 1490 1490 1490 1490 1490 1490 1490 1490 1489 1489 1489 1489 1489 1488 1488 1488 1488 1487 1487 1486 1486 1485 1485 1484 1483 1482 1482 1481 1481 1481 1480 1480 1480 1480 1479 1479 1478 1478 1477 1476 1475 1475 1474 1473 1473 1472 1471 1471 1470 1470 1470 1469 1469 1468 1468 1467 1466 1466 1466 1465 1465 1465
1488 1488 1488 1488 1489 1489 1489 1489 1489 1489 1489 1489 1488 1488 1488 1488 1487 1487 1487 1487 1486 1486 1486 1485 1485 1485 1485 1484 1483 1483 1482 1481 1481 1480 1480 1479 1479 1479 1479 1478 1478 1478 1477 1477 1476 1475 1475 1474 1473 1473 1472 1471 1470 1470 1469 1469 1469 1468 1468 1467 1467 1466 1466 1465 1465 1464 1464 1463 1463
1486 1487 1487 1487 1487 1487 1487 1487 1487 1487 1487 1487 1487 1487 1486 1486 1486 1485 1485 1485 1485 1484 1484 1484 1483 1483 1483 1482 1481 1481 1480 1480 1479 1478 1478 1477 1477 1477 1477 1477 1476 1476 1476 1475 1475 1474 1473 1472 1471 1471 1470 1470 1469 1468 1468 1467 1467 1466 1466 1465 1465 1465 1464 1464 1463 1463 1462 1461 1461
1485 1485 1485 1485 1485 1485 1485 1485 1485 1485 1485 1485 1485 1485 1485 1485 1485 1484 1484 1483 1483 1483 1482 1482 1481 1481 1481 1480 1480 1479 1479 1478 1477 1477 1476 1475 1475 1475 1475 1475 1475 1475 1474 1474 1473 1472 1471 1471 1470 1469 1468 1468 1467 1466 1466 1465 1465 1465 1464 1464 1464 1463 1463 1462 1462 1461 1461 1460 1459
1483 1483 1483 1484 1484 1484 1484 1484 1484 1484 1484 1484 1484 1484 1484 1483 1483 1483 1482 1482 1481 1481 1480 1480 1480 1479 1479 1478 1478 1477 1477 1476 1476 1475 1475 1474 1474 1473 1473 1473 1473 1473 1472 1472 1471 1470 1470 1469 1468 1467 1466 1466 1465 1464 1464 1464 1463 1463 1462 1462 1462 1461 1461 1461 1460 1460 1459 1459 1458
1481 1482 1482 1482 1482 1482 1482 1482 1482 1482 1482 1482 1482 1482 1482 1482 1481 1481 1480 1480 1480 1479 1479 1478 1478 1477 1477 1476 1476 1475 1475 1475 1474 1474 1473 1472 1472 1471 1471 1471 1471 1471 1470 1470 1470 1469 1468 1467 1466 1465 1465 1464 1463 1462 1462 1461 1461 1461 1460 1460 1460 1460 1460 1459 1459 1458 1457 1457 1456
1480 1480 1480 1480 1481 1481 1481 1481 1481 1481 1481 1480 1480 1480 1480 1480 1480 1479 1479 1478 1478 1477 1477 1476 1476 1475 1475 1475 1474 1474 1473 1473 1472 1472 1471 1470 1470 1469 1469 1469 1469 1469 1469 1468 1468 1467 1466 1466 1465 1464 1463 1462 1461 1460 1460 1459 1459 1459 1458 1458 1458 1458 1458 1457 1457 1456 1456 1455 1455
1478 1479 1479 1479 1479 1479 1479 1479 1479 1479 1479 1479 1479 1478 1478 1478 1478 1477 1477 1476 1476 1475 1475 1475 1474 1474 1473 1473 1472 1472 1471 1470 1470 1470 1470 1469 1468 1467 1467 1466 1467 1467 1467 1466 1466 1465 1465 1464 1463 1462 1461 1460 1459 1458 1458 1457 1457 1456 1456 1456 1456 1455 1455 1455 1455 1455 1454 1454 1453
1477 1477 1478 1478 1478 1478 1478 1478 1477 1477 1477 1477 1477 1477 1476 1476 1476 1475 1475 1475 1474 1474 1473 1473 1472 1472 1471 1471 1470 1470 1469 1469 1468 1468 1467 1467 1466 1465 1465 1464 1464 1465 1465 1464 1464 1463 1463 1462 1461 1460 1459 1458 1457 1456 1455 1455 1455 1454 1454 1454 1453 1453 1453 1453 1453 1452 1452 1452 1451
1476 1476 1476 1476 1476 1476 1476 1476 1476 1476 1476 1475 1475 1475 1475 1474 1474 1474 1473 1472 1472 1471 1471 1471 1470 1470 1469 1469 1468 1468 1467 1467 1466 1466 1465 1465 1464 1463 1462 1462 1462 1462 1462 1462 1462 1461 1461 1460 1459 1458 1457 1456 1455 1454 1453 1453 1452 1452 1451 1451 1451 1451 1451 1451 1450 1450 1450 1450 1450
1474 1475 1475 1475 1475 1475 1475 1474 1474 1474 1474 1474 1474 1473 1473 1472 1472 1471 1471 1470 1470 1469 1469 1468 1468 1468 1467 1466 1466 1465 1465 1465 1465 1464 1463 1462 1462 1461 1460 1460 1459 1460 1460 1460 1460 1459 1459 1458 1457 1456 1455 1454 1453 1452 1451 1450 1450 1449 1449 1449 1449 1448 1448 1448 1448 1448 1448 1448 1447
1473 1473 1473 1473 1473 1473 1473 1473 1473 1472 1472 1472 1472 1471 1471 1470 1470 1469 1469 1468 1468 1467 1466 1466 1465 1465 1465 1464 1464 1463 1463 1463 1462 1462 1461 1460 1460 1459 1458 1457 1457 1457 1458 1458 1457 1457 1456 1456 1455 1455 1453 1452 1451 1450 1449 1448 1448 1447 1446 1446 1446 1446 1446 1446 1446 1445 1445 1445 1445
1471 1471 1471 1471 1471 1471 1471 1471 1471 1471 1470 1470 1470 1469 1469 1468 1468 1467 1467 1466 1465 1465 1464 1464 1463 1463 1462 1462 1461 1460 1460 1460 1460 1460 1459 1458 1457 1457 1456 1455 1455 1455 1455 1455 1455 1455 1454 1454 1453 1452 1451 1450 1449 1448 1447 1446 1445 1445 1444 1444 1444 1443 1443 1443 1443 1443 1443 1443 1443
1470 1470 1470 1470 1470 1470 1470 1470 1469 1469 1469 1468 1468 1467 1466 1466 1465 1465 1465 1464 1463 1463 1462 1461 1461 1460 1460 1459 1459 1458 1457 1457 1457 1457 1457 1456 1455 1455 1454 1454 1453 1452 1453 1453 1453 1453 1452 1451 1451 1450 1450 1448 1447 1446 1445 1444 1443 1442 1442 1441 1441 1441 1440 1440 1440 1440 1440 1440 1440